< < Back
Terminal Aerodrome Forecast


Current Version              Previous Versions:   1  2  3  4  5  6  7  8  9  

Terminal Aerodrome Forecast

095
FTUS44 KBMX 051100
TAFBHM
TAF
KBHM 051140Z 0512/0612 36010KT 3SM -RA BR OVC006
      TEMPO 0512/0514 SCT006 OVC012
     FM051430 35012KT 4SM -RAPL BR SCT007 OVC012
     FM051600 35010G20KT 4SM -FZRA BR SCT007 OVC012
     FM052000 35012G20KT P6SM OVC015
     FM060200 36012KT P6SM OVC025=

Latest METAR

078
SAUS70 KWBC 060400 RRB
MTRBHM
METAR KBHM 060353Z 35013G18KT 10SM SCT020 M04/M08 A3046 RMK AO2 SLP320
T10391078


USA.gov is the U.S. government's official web portal to all federal, state and local government web resources and services.